Flag for U.S.A. Weather past 2 weeks in Cape Coral, Florida, U.S.A.

Now
64 °F

Clear.


Feels Like: 64 °F
Forecast: 65 / 81 °F
Wind: 12 mph from Northeast

Location: Page Field

Current Time: Oct 24, 2014 at 7:50:51 AM

Latest Report: Oct 24, 2014 at 6:53 AM


Visibility: 10 mi

Pressure: 29.90 "Hg

Humidity: 81%

Dew point: 58 °F

Location of Cape CoralLocation

Historic Weather in Cape Coral — Graph

°F

Cape Coral temperature yesterday

Maximum temperature yesterday: 84 °F (at 4:53 PM)
Minimum temperature yesterday: 67 °F (at 11:53 PM)
Average temperature yesterday: 75 °F

Past Weeks' High & Low Weather Summary

 TemperatureHumidityPressure
High91 °F (Oct 11, 3:53 PM)97% (Oct 12, 7:53 AM)30.09 "Hg (Oct 12, 7:53 AM)
Low62 °F (Oct 17, 7:53 AM)34% (Oct 9, 2:53 PM)29.87 "Hg (Oct 23, 5:53 PM)
Average76 °F75%29.97 "Hg
* Reported Oct 9 6:53 AM — Oct 24 6:53 AM, Cape Coral, Weather by CustomWeather, © 2014

Note: Actual official high and low records may vary slightly from our data, if they occured in-between our weather recording intervals... More about our weather records

Advertising

Cape Coral weather history for previous 24 hours

 ConditionsComfort  
Time TempWeatherWind HumidityBarometerVisibility
6:53 AM
Oct 24
64 °FClear.12 mph81%29.90 "Hg10 mi
5:53 AM64 °FClear.9 mph81%29.89 "Hg10 mi
4:53 AM64 °FClear.10 mph81%29.88 "Hg10 mi
3:53 AM65 °FClear.10 mph78%29.89 "Hg10 mi
2:53 AM65 °FClear.8 mph76%29.90 "Hg10 mi
1:53 AM65 °FClear.8 mph81%29.93 "Hg10 mi
12:53 AM66 °FClear.9 mph81%29.94 "Hg10 mi
11:53 PM
Oct 23
67 °FClear.9 mph81%29.95 "Hg10 mi
10:53 PM70 °FClear.9 mph76%29.96 "Hg10 mi
9:53 PM72 °FClear.8 mph73%29.94 "Hg10 mi
8:53 PM74 °FClear.8 mph71%29.91 "Hg10 mi
7:53 PM75 °FClear.10 mph66%29.90 "Hg10 mi
6:53 PM77 °FSunny.9 mph66%29.89 "Hg10 mi
5:53 PM80 °FPassing clouds.10 mph62%29.87 "Hg10 mi
4:53 PM84 °FPartly sunny.12 mph55%29.87 "Hg10 mi
2:53 PM83 °FScattered clouds.14 mph59%29.89 "Hg10 mi
1:53 PM83 °FPassing clouds.13 mph59%29.91 "Hg10 mi
12:53 PM82 °FScattered clouds.16 mph60%29.93 "Hg10 mi
11:53 AM80 °FPassing clouds.18 mph62%29.94 "Hg10 mi
10:53 AM78 °FScattered clouds.12 mph64%29.95 "Hg10 mi
9:53 AM74 °FPartly sunny.13 mph71%29.95 "Hg10 mi
8:53 AM69 °FSunny.9 mph81%29.95 "Hg10 mi
7:53 AM69 °FPassing clouds.9 mph81%29.93 "Hg10 mi
Weather by CustomWeather, © 2014

See weather overviewHow to use our weather pages